Lid_Strength_Index
1 0 0 1 2 3 5 8 10 5 7 11 13 14 12 9 9 9 10 10 12 12 13 13 13 13 12 9 9 11 12 15 18 17 13 12 14 16 18 18 18 19 17 17
0 -0 0 1 2 3 6 9 9 6 7 13 14 12 9 9 9 10 11 11 11 11 13 14 12 11 8 8 8 11 11 15 18 17 16 14 15 14 17 18 19 19 18 16
0 0 0 1 2 2 6 9 11 9 9 12 12 13 12 11 7 9 9 10 11 12 13 13 13 12 9 9 7 5 9 15 16 18 18 16 15 14 14 17 18 19 18 16
0 0 0 1 2 3 6 9 11 10 12 11 12 12 12 11 12 9 9 10 10 12 14 13 13 12 11 10 8 10 13 15 15 15 13 13 14 14 14 16 16 17 16 15
0 -0 0 1 2 3 6 8 9 10 11 11 11 11 13 11 11 11 11 11 10 11 13 13 14 13 13 14 11 13 13 15 15 15 13 13 14 13 13 14 14 14 13 13
0 -0 0 1 2 3 6 6 7 8 10 11 12 12 11 10 9 8 8 9 11 11 11 10 11 11 12 13 14 14 14 15 16 19 15 15 17 14 13 12 11 12 15 12
0 -0 -0 0 1 3 5 6 7 9 11 10 10 9 8 8 9 10 9 9 11 9 8 9 10 11 12 12 13 14 15 16 17 18 18 20 16 12 11 10 10 10 10 9
0 -0 -0 -0 1 2 4 6 6 9 11 9 8 8 9 9 9 9 8 8 8 9 10 13 14 14 14 13 12 14 14 15 18 18 19 16 13 11 11 12 12 8 9 9
0 0 -0 -0 0 2 4 5 6 8 9 10 7 9 9 11 11 10 9 7 8 9 12 14 17 18 16 15 14 13 13 14 16 18 20 19 14 9 8 9 15 9 8 9
1 0 0 0 -0 1 4 4 5 7 9 8 8 9 9 9 11 11 11 10 10 10 14 18 20 20 14 19 16 17 17 16 18 17 19 15 10 9 8 15 15 9 9 9
1 1 0 0 0 0 3 4 5 5 8 8 6 6 8 9 10 12 10 11 12 13 16 17 18 19 17 18 15 16 17 18 16 15 18 19 9 9 12 11 10 10 10 10
1 1 0 0 0 0 3 5 5 4 6 6 5 4 4 6 6 9 11 11 12 12 15 16 17 18 16 19 20 14 17 15 17 15 15 10 9 10 9 9 11 10 10 9
1 1 1 0 0 0 3 7 7 5 7 7 7 6 5 6 5 6 9 10 10 12 11 14 16 18 16 18 18 17 14 12 16 15 13 12 10 9 8 8 9 9 8 8
1 1 1 1 0 1 2 6 6 6 8 10 9 4 6 5 6 6 6 8 9 10 11 14 15 17 14 19 17 17 14 12 14 15 13 12 10 9 9 8 7 6 6 7
1 2 1 1 1 1 5 6 6 5 6 10 9 7 6 5 6 6 7 7 9 9 11 13 14 14 14 14 14 17 12 13 16 15 12 12 11 9 8 8 8 7 6 6
1 2 2 1 1 3 5 6 5 5 5 8 11 8 7 6 7 7 8 7 7 8 9 10 10 11 13 16 16 13 12 11 12 12 11 10 9 8 8 8 7 6 6 5
2 2 2 2 2 6 6 7 5 5 6 8 11 11 7 6 8 8 9 8 7 7 8 9 10 10 11 15 18 12 12 11 10 10 9 10 9 9 7 7 6 5 5 5
2 3 2 2 3 4 6 5 4 4 5 7 10 10 9 7 9 10 7 7 6 6 7 8 10 10 10 14 10 11 10 10 10 9 8 9 8 8 8 7 7 6 6 6
3 2 2 5 7 7 6 1 2 3 5 9 8 12 12 6 6 6 6 6 10 6 9 9 9 13 14 11 9 9 9 9 8 8 8 8 8 8 7 7 7 7 7 6
2 6 6 7 6 2 2 5 6 6 6 7 8 10 10 7 8 8 8 7 10 12 10 8 12 13 8 7 8 7 7 8 7 8 8 8 8 7 6 6 6 6 6 5
6 6 7 5 2 4 5 9 9 7 9 10 9 10 10 7 10 9 7 11 11 13 11 11 12 12 8 6 6 5 5 5 5 6 6 6 6 6 6 5 5 5 5 5
5 5 5 5 6 7 10 10 8 9 11 9 9 8 7 8 7 8 8 10 10 14 8 11 13 10 7 6 5 4 4 4 4 4 5 4 4 4 5 5 5 5 5 4
5 7 6 7 8 12 12 15 12 11 8 8 8 9 8 8 8 8 9 11 12 8 12 12 11 9 6 6 6 5 4 4 4 4 3 3 3 3 3 4 5 4 4 3
6 8 11 10 12 11 10 10 9 8 8 8 9 9 9 10 10 9 12 10 10 13 16 13 11 9 7 6 6 6 5 5 5 4 4 4 4 4 3 4 4 4 4 3
7 8 12 10 8 8 7 7 8 7 7 8 9 9 9 10 11 10 10 12 13 14 14 11 9 8 8 7 6 6 6 6 5 4 4 4 4 4 4 3 3 4 4 4
7 8 9 8 9 9 8 8 8 7 7 9 8 10 11 11 10 12 13 13 15 12 10 9 8 8 7 7 6 6 6 6 4 4 4 4 4 4 4 4 4 4 4 4
8 8 7 7 7 8 7 7 8 7 8 9 9 11 12 10 12 12 10 12 10 9 8 8 8 8 7 5 5 4 5 5 4 5 5 5 4 4 4 4 3 3 4 3